Weather in Russkaya Tsilna

Russia / Ulyanovsk Oblast     54°42′15″N   47°57′19″E
temp.,
°C
wind,
m/s
gust,
m/s
humid.,
%
clouds,
%
prec.,
mm/h
press.,
hPa
HPBL,
m
13 may, thu
thu1301:00+15se376343 0.0 1024109
04:00+14ese346722 0.0 102459
07:00+16ese4106788 0.0 1023265
10:00+20ese61154100 0.0 1022464
13:00+23se7104898 0.0 1022972
16:00+23ese8155419 0.0 10211424
19:00+20se61564100 0.0 1020609
22:00+19se616647 0.1 1020400
14 may, fri
fri1401:00+16se41278100 0.8 1020217
04:00+14se368026 0.9 1020101
07:00+16sse3673100 0.0 1020181
10:00+21s4653100 0.0 1020488
13:00+25s5746100 0.0 10201079
16:00+26s57430 0.0 10201590
19:00+24s48575 0.0 1019247
22:00+19s366963 0.0 102079
15 may, sat
sat1501:00+18sse3565100 0.0 101969
04:00+17sse496578 0.0 1019155
07:00+18sse41162100 0.0 1019276
10:00+24s6114096 0.0 1019530
13:00+28s8103052 0.0 10181151
16:00+28s793361 0.0 10181350
19:00+24s510485 0.0 1017302
22:00+19sse4125439 0.0 1017200
16 may, sun
sun1601:00+18s415533 0.0 1017266
04:00+17s4135333 0.0 1016219
07:00+18s41358100 0.0 1017301
10:00+25ssw6104252 0.0 1016555
13:00+28ssw7103263 0.0 10161590
16:00+29ssw68305 0.0 10152523
19:00+25sw510463 0.0 1015332
22:00+20sw36605 0.0 101682
17 may, mon
mon1701:00+18wsw23615 0.0 101622
04:00+17sw116633 0.0 101711
07:00+19sw116158 0.0 101750
10:00+24s234426 0.0 1017580
13:00+28ssw35365 0.0 10171319
16:00+29sw46325 0.0 10172548
19:00+28wsw114327 0.0 101619
22:00+22w11565 0.0 101712